Miscellaneous Local Product
Issued by NWS North Platte, NE

Home | Current Version | Previous Version | Text Only | Print | Product List | Glossary On
Versions: 1 2 3 4 5 6 7 8 9 10 11 12 13 14 15 16 17 18 19 20 21 22 23 24 25 26 27 28 29 30 31 32 33 34 35 36 37 38 39 40 41 42 43 44 45 46 47 48 49 50
000
AXUS43 KLBF 130610
MISLBF


WESTERN AND NORTH CENTRAL NEBRASKA HOURLY WEATHER ROUNDUP
NATIONAL WEATHER SERVICE NORTH PLATTE NE
100 AM CDT SUN JUL 13 2014

***STATIONS NOT REPORTING VARIABLES SUCH AS SKY/WEATHER OR
PRESSURE ARE PROVIDED BY THE NEBRASKA DEPARTMENT OF
ROADS...RAWS...AND APRS NETWORKS...AND ARE NOT UNDER
NATIONAL WEATHER SERVICE QUALITY CONTROL***

...OBSERVATIONS IN AND NEAR THE EASTERN PANHANDLE OF NEBRASKA...

CITY           SKY/WX    TMP DP  RH WIND       PRES   REMARKS
PINE RIDGE     CLEAR     63  62  97 CALM      30.22R
CHADRON        PTCLDY    62  59  90 W6        30.22S
ALLIANCE       PTCLDY    65  62  90 NW5       30.23S
SIDNEY         MOCLDY    61  56  83 CALM      30.28R
WHITECLAY        N/A     61  60  94 CALM        N/A
RUSHVILLE        N/A     63  61  94 NW8         N/A
GORDON           N/A     69  67  94 N5          N/A
CRESCENT LAKE    N/A     71  60  67 CALM        N/A
LISCO            N/A     70  64  81 CALM        N/A
BIG SPRINGS      N/A     66  63  91 CALM        N/A
$$

...OBSERVATIONS IN NORTH CENTRAL NEBRASKA...

CITY           SKY/WX    TMP DP  RH WIND       PRES   REMARKS
VALENTINE      CLEAR     66  64  93 NW3       30.14F
THEDFORD       CLEAR     69  63  83 CALM      30.17R
AINSWORTH      CLEAR     68  63  83 CALM      30.14S
O`NEILL        CLEAR     67  62  85 W3        30.09S
ORD            CLEAR     64  63  96 CALM      30.08S
BROKEN BOW     CLEAR     65  63  93 CALM      30.12S
BROWNLEE         N/A     72  64  78 SW5         N/A
SPRINGVIEW       N/A     66  63  90 CALM        N/A
ROSE             N/A     73  71  96 CALM        N/A
NEWPORT          N/A     73  67  80 CALM        N/A
SARGENT          N/A     66  64  95 CALM        N/A
COMSTOCK         N/A     72  70  94 CALM        N/A
CHAMBERS         N/A     65  63  93 CALM        N/A
$$

...OBSERVATIONS IN SOUTHWEST NEBRASKA AND FAR NORTHEAST COLORADO...

CITY           SKY/WX    TMP DP  RH WIND       PRES   REMARKS
WRAY             N/A     69  66  88 CALM      30.23R
HOLYOKE        FAIR      68  61  77 N3        30.23S
IMPERIAL       MOCLDY    68  64  87 N6        30.19R
OGALLALA       PTCLDY    64  61  89 CALM      30.20R
NORTH PLATTE   CLEAR     65  61  87 CALM      30.15S
MCCOOK         PTCLDY    70  66  87 CALM      30.14R
LEXINGTON      PTCLDY    67  65  95 NW3       30.12S
PAXTON           N/A     69  64  85 CALM        N/A
SUTHERLAND       N/A     67  63  89 CALM        N/A
BRADY            N/A     66  62  87 CALM        N/A
GOTHENBURG       N/A     72  64  74 N3          N/A
CALLAWAY         N/A     65  63  93 N3          N/A
$$

...NORTH PLATTE AREA...

CITY           SKY/WX    TMP DP  RH WIND       PRES   REMARKS
AIRPORT        CLEAR     65  61  87 CALM      30.15S
INDIAN HILLS     N/A     63  62  95 CALM        N/A
$$

...SOME WEATHER OBSERVATIONS FROM AROUND THE REGION...

CITY           SKY/WX    TMP DP  RH WIND       PRES   REMARKS
DENVER         MOCLDY    64  59  83 SW9       30.34S
LARAMIE        MOCLDY    57  52  83 NE8       30.45R
CHEYENNE       CLOUDY    65  55  70 N9        30.41R
SCOTTSBLUFF    PTCLDY    65  64  97 NW6       30.25R
RAPID CITY     CLEAR     67  62  84 NW9       30.20S
PIERRE         CLEAR     68  64  87 W7        30.06S
WINNER         FAIR      69  62  78 SW5       30.10S
SIOUX FALLS    CLEAR     67  63  87 CALM      30.02S
OMAHA          PTCLDY    71  66  84 CALM      30.02R
GRAND ISLAND   CLEAR     68  65  90 CALM      30.08R
KANSAS CITY    MOCLDY    82  68  62 SW14      29.97R
WICHITA        PTCLDY    75  60  59 S10       30.00F
HAYS           PTCLDY    73  64  73 N10       30.05S
LIBERAL        MOCLDY    79  59  50 SW7       30.14R
GOODLAND       CLOUDY    70  66  87 E3        30.22R
$$



USA.gov is the U.S. government's official web portal to all federal, state and local government web resources and services.